Wind_Speed
8 9 13 14 6 10 15 15 15 16 17 8 28 18 14 6 6 13 21 18 18 16 16 15 17 19 19 20 20 20 21 22 23 23 22 20 17 15 13 13 13 11 11 10 9 8 8 7 6
11 15 14 7 6 15 14 17 17 13 7 19 25 22 24 24 24 22 19 18 17 18 16 15 17 18 19 18 19 19 19 20 20 19 20 19 17 15 14 12 11 10 9 9 9 7 7 5 5
14 19 7 6 11 15 14 14 10 11 10 19 24 21 15 20 19 15 25 22 20 20 16 18 17 17 18 18 18 18 17 17 16 15 16 16 15 15 13 12 10 8 8 8 8 6 5 4 4
16 8 8 14 19 18 15 15 16 18 19 21 19 14 21 32 26 29 26 20 20 18 17 17 16 16 15 15 17 17 16 16 14 14 13 13 14 12 11 10 9 8 7 6 6 5 4 5 5
23 3 3 14 18 16 15 17 15 14 18 20 22 19 23 34 29 28 25 23 20 18 16 16 17 16 16 16 16 15 15 14 14 13 11 12 10 9 9 7 6 5 5 4 4 4 5 5 6
2 7 4 14 16 16 17 14 14 18 23 21 20 20 20 27 25 26 23 21 21 20 17 16 16 15 14 15 15 14 14 13 12 11 9 9 8 6 6 4 3 3 3 2 4 5 6 6 7
6 10 4 22 18 16 7 18 15 17 20 19 18 20 16 20 21 26 21 24 22 19 19 16 15 15 14 13 13 13 12 11 10 8 7 7 5 5 4 3 1 1 2 3 6 5 7 8 8
7 4 7 3 19 10 13 15 21 19 16 20 22 13 17 20 24 23 18 20 23 19 18 17 14 14 13 13 12 12 10 10 9 7 6 6 6 7 4 1 3 5 6 6 6 7 8 10 8
32 7 5 9 12 19 20 16 18 17 14 13 11 20 24 24 23 23 29 20 18 20 14 16 14 12 12 13 12 11 10 9 9 7 6 4 5 9 7 4 2 7 11 9 8 7 7 7 8
6 3 11 10 12 22 25 2 16 13 12 12 18 25 27 23 18 24 17 15 16 17 15 15 12 12 15 13 13 11 10 10 9 8 8 4 6 4 4 7 6 5 7 8 7 7 6 4 4
4 12 6 16 11 24 28 23 11 24 12 16 23 24 22 22 18 14 21 18 14 17 17 15 14 12 12 9 13 16 14 15 12 11 10 8 3 4 5 5 3 4 6 3 2 6 7 6 5
6 13 13 8 21 14 18 21 17 24 14 18 20 22 20 18 16 16 14 16 14 11 12 19 12 12 10 8 9 11 15 10 9 13 8 9 4 1 3 3 5 4 5 9 7 6 8 6 8
9 14 9 12 16 17 20 16 17 20 14 19 20 19 18 16 16 16 14 14 15 13 10 11 11 10 7 6 5 6 10 7 8 10 5 7 7 6 5 6 6 8 9 8 7 6 10 13 10
12 11 10 15 12 12 14 15 16 15 18 19 18 16 15 15 16 16 14 16 13 12 12 11 9 10 11 6 5 2 5 1 8 5 7 9 7 7 9 9 7 10 9 11 10 8 13 14 13
9 10 9 11 16 12 18 15 14 16 15 17 16 15 14 13 15 15 14 14 14 13 15 14 11 12 11 9 7 7 8 8 8 11 11 9 10 10 13 14 15 15 11 13 14 14 13 14 15
13 14 12 17 19 3 8 11 13 15 15 15 15 15 14 13 14 13 14 14 15 13 13 11 10 14 14 13 11 9 9 8 7 10 14 13 15 15 14 16 16 14 16 17 15 16 15 15 15
13 13 14 15 20 10 4 11 16 17 15 13 14 13 13 11 14 18 17 13 13 13 14 13 14 11 13 11 11 9 10 10 12 13 15 13 13 11 12 14 15 16 18 15 15 17 16 18 20
17 17 20 15 14 14 14 10 15 17 17 14 13 12 13 14 13 20 20 18 16 18 15 15 11 7 11 7 6 7 8 10 11 11 12 13 10 12 13 14 15 14 15 18 19 18 18 17 16
15 13 17 16 18 25 13 16 18 18 17 16 16 14 15 15 18 19 23 24 22 19 18 13 14 9 8 6 6 7 7 9 11 11 11 9 10 8 8 9 9 11 14 16 16 15 14 15 15
19 11 12 13 16 11 16 20 18 17 17 18 17 16 16 16 16 17 18 15 17 18 21 16 13 11 9 8 8 7 7 8 10 11 8 5 6 6 8 9 11 14 14 15 15 16 14 13 15
16 11 10 15 12 4 12 18 13 15 15 17 18 18 17 17 19 16 19 20 19 16 18 16 14 12 11 9 8 6 7 8 9 2 4 4 3 8 10 9 11 14 15 15 15 12 12 11 14
18 12 18 15 14 11 15 13 18 23 18 16 18 19 19 19 18 18 21 21 21 21 18 20 15 13 10 7 2 3 4 8 3 3 3 10 10 8 11 10 11 11 12 16 15 10 11 12 12
12 16 18 13 11 14 14 9 15 16 16 16 19 20 20 21 21 20 21 22 23 24 21 19 17 13 13 7 3 2 5 9 7 3 6 9 12 9 7 8 7 10 12 14 15 12 12 13 13
18 10 17 9 11 14 17 12 6 9 17 17 9 18 20 21 21 19 26 27 23 24 22 21 19 14 12 10 7 3 0 2 4 6 6 10 6 9 1 4 7 9 11 12 15 14 13 13 14
18 11 8 9 11 13 15 15 10 19 22 21 20 31 21 19 18 17 19 24 25 26 22 22 20 17 15 12 8 3 2 1 4 6 7 6 10 6 5 7 7 9 11 13 13 14 14 14 11
13 16 9 13 12 13 13 9 16 10 15 27 25 27 22 21 19 19 17 25 27 25 24 24 23 20 17 14 10 5 3 4 3 2 1 3 7 7 9 7 7 11 12 12 11 13 12 12 11
15 17 18 18 13 6 7 9 11 9 9 5 9 11 18 21 20 21 20 26 27 25 25 24 23 20 19 17 13 8 7 5 5 2 2 5 4 5 6 7 10 13 15 14 13 13 14 7 9
16 17 13 12 9 10 8 9 10 15 10 11 9 6 7 17 21 19 18 27 29 26 24 25 23 21 21 18 15 12 10 7 7 5 5 6 8 9 10 11 12 14 16 15 15 14 16 14 12
15 11 9 12 10 9 9 4 13 11 8 7 7 8 4 9 15 18 15 26 30 29 27 25 23 21 20 18 15 10 7 8 9 7 7 8 9 9 11 13 14 16 18 18 15 14 16 15 10
21 16 10 9 9 8 9 5 13 11 10 9 7 3 6 2 11 16 15 24 27 27 27 26 25 22 20 18 15 12 9 9 7 7 7 8 9 10 11 13 15 17 18 18 16 15 15 15 13
Wind_Direction
279 247 229 252 227 82 74 43 67 73 64 91 153 86 123 200 208 109 136 120 122 115 117 114 113 112 109 111 114 114 116 113 114 117 113 107 110 113 109 104 101 97 90 84 81 78 73 68 61
289 293 254 268 106 81 63 60 61 72 95 77 85 105 83 78 89 113 116 124 118 120 114 117 120 119 112 112 111 110 113 119 120 114 105 101 102 103 101 100 96 90 86 86 81 79 79 63 46
289 273 256 173 83 87 89 91 89 110 69 80 74 80 91 108 111 106 126 120 111 108 125 126 122 121 115 115 112 115 116 121 126 115 108 100 102 103 101 97 97 93 89 88 86 73 65 43 27
349 326 244 88 87 93 103 101 87 78 79 96 104 71 85 99 103 123 125 117 113 114 115 128 135 135 131 123 123 130 125 117 126 124 117 111 103 104 107 107 105 97 86 76 75 68 45 20 1
112 257 127 107 103 103 91 106 100 96 95 95 99 99 90 101 119 123 131 128 125 121 122 123 126 131 137 137 136 136 131 124 126 129 125 119 115 116 117 114 107 92 73 59 50 32 10 351 343
95 243 146 104 109 69 103 85 97 98 100 105 109 109 104 117 124 131 134 134 129 132 123 124 129 125 131 136 136 142 141 131 128 127 128 135 137 134 136 125 115 102 81 32 357 343 338 334 328
322 287 20 87 86 79 304 114 99 102 118 122 120 116 127 136 137 134 137 118 121 130 127 129 133 136 136 141 140 146 155 154 147 139 136 140 156 171 161 151 155 32 341 339 324 324 314 315 317
246 225 112 243 141 144 201 118 134 135 129 132 134 140 148 136 147 129 125 135 126 127 133 137 141 141 141 141 148 151 157 167 170 163 160 172 200 205 160 201 260 283 294 305 297 297 294 309 318
205 273 88 53 97 131 123 119 86 99 128 150 123 141 141 146 143 132 129 129 128 132 139 134 143 142 147 151 155 157 167 175 174 176 180 196 237 217 201 271 270 253 291 303 297 302 309 311 307
201 141 129 148 158 82 356 98 114 136 130 127 119 125 140 151 160 142 161 120 157 148 152 156 158 161 168 163 157 158 174 185 184 200 224 239 246 349 310 347 301 294 296 302 311 311 311 312 343
336 87 83 104 83 132 174 79 96 2 138 126 133 140 150 151 158 162 147 155 162 152 173 155 160 177 164 176 176 181 190 196 204 205 215 238 264 216 278 0 64 291 317 337 274 325 316 260 305
104 66 74 85 61 8 74 83 107 141 232 128 141 142 150 156 159 163 157 150 148 164 155 155 153 179 162 170 177 204 198 192 206 211 221 231 252 191 313 294 280 317 275 278 283 290 299 274 282
117 88 87 105 150 85 70 67 120 178 181 130 138 147 152 158 163 161 162 161 151 169 180 151 144 168 185 220 201 191 178 199 206 194 229 229 243 255 252 269 288 285 292 326 305 313 299 300 287
101 137 167 109 90 117 117 107 111 109 125 130 144 149 157 162 166 161 169 161 169 180 177 165 161 182 205 214 236 231 197 223 243 237 254 250 242 252 257 270 260 267 272 278 275 274 281 275 279
129 135 130 146 113 56 111 97 113 127 136 147 147 156 159 156 165 162 177 171 177 180 184 182 183 176 195 215 220 240 219 239 236 239 256 260 255 255 258 256 260 262 278 279 299 297 293 280 279
169 170 177 136 110 77 65 117 134 150 152 149 164 158 154 148 162 166 175 177 178 189 163 179 197 197 197 199 210 222 239 256 259 251 264 247 242 252 271 271 280 280 278 281 285 288 287 280 281
208 197 154 125 125 154 154 162 158 165 167 169 170 152 150 155 155 149 142 155 169 161 169 182 204 201 197 216 209 220 232 242 260 263 259 274 246 263 266 271 276 282 280 287 284 285 283 277 277
202 216 163 160 180 158 169 163 168 175 164 170 175 164 163 166 167 153 161 170 191 171 174 186 192 204 180 178 205 223 242 247 260 263 258 248 265 273 277 275 273 273 277 274 280 284 289 280 281
212 221 157 244 155 163 174 172 176 185 162 175 172 177 176 175 157 159 164 170 176 170 162 150 167 171 184 190 200 233 243 245 257 257 259 268 273 286 276 301 296 288 283 288 292 287 298 298 291
237 205 204 203 154 179 154 183 190 189 173 174 177 182 185 171 153 162 153 173 162 159 157 164 167 179 193 199 204 217 234 258 247 245 235 253 284 278 295 291 291 301 302 303 297 289 298 295 297
251 238 222 199 150 178 199 155 137 259 195 174 181 183 184 174 166 168 169 178 171 160 158 165 170 177 186 196 212 224 231 243 246 349 176 128 308 313 307 298 295 294 295 292 299 300 297 293 298
232 217 261 229 176 212 180 230 168 218 188 195 190 183 187 180 172 172 180 181 172 164 168 165 174 174 171 174 355 114 340 291 334 334 352 333 337 303 293 292 292 298 301 295 304 308 295 293 289
240 227 231 238 240 235 231 231 159 185 188 198 201 191 194 181 181 178 185 181 173 165 171 162 171 161 148 155 141 76 1 2 3 359 319 314 294 274 269 280 294 303 308 303 312 309 297 288 288
222 255 205 224 253 252 228 216 159 180 211 215 253 215 196 188 184 182 180 174 173 166 172 166 156 160 159 160 155 152 198 345 330 330 320 278 339 295 243 288 317 311 309 311 315 314 308 303 301
213 206 208 226 231 242 238 223 237 176 216 206 176 229 196 191 186 184 178 172 173 167 175 156 162 168 169 171 171 166 159 210 246 234 281 356 309 1 350 347 336 317 312 312 310 309 309 313 320
193 221 214 207 232 230 209 184 222 194 175 200 207 203 194 190 185 182 180 172 169 170 171 168 168 173 175 180 174 163 189 247 233 49 51 326 309 318 317 324 311 315 307 300 309 316 317 316 332
185 234 241 258 265 255 181 198 222 160 159 157 179 214 193 186 191 183 175 168 169 176 174 165 169 181 179 181 176 185 194 207 254 324 310 282 310 315 348 328 312 307 306 302 293 300 314 328 334
219 207 234 249 261 281 237 234 215 157 158 173 182 213 233 197 184 188 181 170 170 179 177 165 175 189 185 181 179 201 192 200 213 227 254 276 288 290 290 292 296 307 308 304 301 294 290 299 311
208 230 217 247 229 253 256 82 100 136 155 147 166 175 192 231 201 183 182 172 171 178 177 171 175 191 189 185 182 185 192 203 205 223 241 261 277 283 284 286 288 292 296 296 296 293 286 286 299
226 197 214 245 254 281 303 313 132 141 152 169 123 170 151 206 273 173 181 171 170 178 177 177 178 188 194 186 183 180 192 198 212 225 246 265 278 281 283 282 284 289 293 293 295 295 293 297 297
Height
730 731 732 728 747 732 761 754 726 741 746 733 761 768 783 788 775 813 799 802 805 808 810 812 813 815 817 820 823 823 825 827 830 832 833 835 838 840 842 843 844 845 847 848 849 848 849 848 847
732 728 724 721 737 762 768 747 756 749 740 730 741 759 768 787 773 787 797 804 806 809 812 815 816 817 819 822 824 826 828 831 834 836 836 838 841 843 845 845 847 848 849 851 851 851 850 848 848
729 729 730 720 737 763 769 748 746 738 735 740 754 753 763 778 778 789 799 805 808 811 813 816 818 820 823 825 826 829 831 834 836 837 839 842 844 845 847 848 849 851 852 852 851 852 851 850 849
730 720 715 729 751 743 747 742 741 742 742 748 755 773 765 774 784 795 802 807 810 814 817 818 820 822 825 827 828 832 834 836 838 840 843 845 846 848 850 851 852 853 853 854 853 851 851 850 849
740 738 733 742 744 735 730 729 734 744 747 752 762 780 777 783 792 797 803 807 812 816 819 820 822 824 826 829 831 833 835 837 840 842 844 846 848 851 852 853 853 854 854 855 854 853 851 850 850
747 747 746 753 745 739 730 728 732 740 749 760 771 778 783 786 792 797 802 807 812 816 820 822 824 826 829 832 833 835 838 840 842 845 846 848 850 852 853 854 854 853 853 855 854 853 851 850 850
752 754 740 741 753 763 761 726 742 750 757 763 765 786 785 786 792 795 800 806 811 817 820 823 825 827 830 832 834 836 839 841 844 846 848 850 850 850 851 852 853 854 854 853 854 853 852 850 849
737 749 741 742 749 764 746 730 733 745 756 748 758 786 791 785 789 796 802 807 811 816 821 824 827 830 832 833 835 838 839 842 844 847 849 850 849 849 849 851 852 852 852 851 852 852 851 849 848
710 751 741 741 736 742 726 742 733 737 751 751 753 765 776 785 789 797 803 808 812 816 821 825 828 830 833 834 836 838 841 843 844 846 848 848 846 844 843 845 847 851 852 850 851 851 850 849 847
710 742 732 716 711 752 755 738 743 751 755 758 763 770 780 785 789 794 801 806 811 816 821 824 828 829 832 835 836 838 840 842 843 845 846 846 846 850 844 846 848 850 850 849 851 850 849 849 847
704 725 714 712 710 729 745 751 755 785 764 761 771 775 781 786 791 795 799 806 808 813 818 822 826 828 831 835 835 836 838 840 842 844 845 843 848 848 848 845 847 849 849 849 849 849 849 848 847
721 707 711 713 720 725 734 739 772 780 778 757 767 774 781 787 791 796 799 806 810 814 817 821 824 829 832 832 835 836 837 838 840 842 843 843 843 846 846 847 847 848 848 848 848 849 848 846 845
716 715 714 716 719 725 733 750 763 773 761 762 769 776 782 786 791 796 800 806 810 815 818 821 825 828 831 832 833 835 836 837 838 840 842 843 843 843 845 846 848 847 848 847 847 846 845 844 843
707 714 718 716 725 729 745 752 758 763 762 768 773 778 781 784 790 796 800 806 811 815 818 821 825 828 831 832 833 834 835 836 837 838 840 841 841 842 843 845 845 846 846 845 843 844 842 841 840
712 731 723 726 730 741 737 766 774 764 767 773 774 775 778 782 788 794 800 805 810 814 816 820 824 827 829 831 832 833 834 835 835 836 837 838 839 839 840 841 842 842 843 842 841 840 839 839 837
727 727 752 731 737 749 749 789 770 762 767 773 772 772 776 782 787 793 798 804 808 812 815 819 822 825 828 829 831 833 833 833 834 834 835 835 835 837 838 838 838 839 839 839 838 838 838 837 836
732 752 752 752 736 746 757 777 762 756 763 770 768 771 775 781 784 790 798 803 807 811 814 818 820 823 826 829 829 831 832 832 833 832 833 833 834 835 835 835 835 836 836 835 836 836 835 833 833
749 752 742 750 739 745 758 765 759 753 758 767 768 771 775 778 782 788 796 801 805 809 813 816 820 822 825 827 829 830 831 831 831 830 830 831 833 832 833 833 834 833 834 833 832 833 832 832 830
717 727 751 734 735 745 756 759 755 748 753 764 766 771 772 774 778 784 790 797 801 806 810 815 819 822 824 826 828 829 829 829 828 828 829 829 830 830 830 830 831 831 831 830 830 830 829 829 828
714 726 733 724 719 731 758 766 750 747 748 753 760 767 767 769 775 783 788 794 798 803 808 813 817 820 823 825 826 827 827 827 826 825 826 827 830 829 829 829 829 829 829 828 828 826 826 826 825
720 730 728 733 724 726 740 764 775 756 743 743 748 755 759 765 774 780 786 791 795 801 806 810 814 818 821 822 823 825 825 825 824 826 827 828 829 828 828 828 828 828 827 826 826 825 825 824 823
739 715 718 723 738 764 735 783 773 761 751 745 745 749 754 760 768 777 783 787 792 798 803 808 812 815 818 819 821 821 822 823 824 825 824 825 826 827 827 827 827 826 826 825 824 823 822 822 821
728 708 719 719 735 743 744 767 760 745 758 748 742 742 746 753 760 769 777 783 788 795 800 805 809 813 815 818 819 821 822 822 823 823 825 826 825 825 825 825 825 825 825 823 822 821 820 820 819
703 715 714 722 736 765 743 752 767 771 755 747 749 741 742 744 752 761 770 778 785 792 798 802 806 810 813 816 818 820 822 822 823 824 825 825 824 824 824 824 824 824 824 823 821 820 819 818 816
706 730 765 776 772 772 724 743 744 728 725 732 746 751 732 736 745 754 763 771 779 786 794 798 804 808 811 814 816 818 820 821 823 823 823 823 823 822 822 823 824 823 822 821 820 819 817 815 815
716 726 754 787 770 752 720 756 741 706 702 715 724 720 722 729 735 747 756 766 774 782 788 794 801 805 808 811 814 816 818 819 820 820 821 822 822 822 822 821 822 821 820 819 818 817 815 813 813
719 735 706 732 722 745 734 724 708 704 711 712 713 714 718 722 731 738 748 759 770 778 784 790 798 802 804 807 811 813 815 817 818 819 820 821 820 820 820 820 820 819 818 816 815 814 812 812 812
701 700 741 730 768 773 740 737 734 722 722 716 718 718 716 716 723 731 741 752 763 773 781 786 794 800 801 804 807 809 811 813 815 817 818 819 818 818 818 818 818 816 815 813 812 811 810 809 808
707 718 714 715 729 757 762 759 710 717 713 716 713 713 716 716 719 725 736 747 757 767 776 782 789 797 800 801 803 806 808 810 812 814 815 816 816 816 816 815 815 814 812 811 810 809 807 806 806
686 706 712 742 749 734 740 746 693 701 705 706 710 711 711 715 717 723 732 742 753 762 770 777 784 793 797 798 800 802 805 807 809 811 812 813 813 813 813 812 811 810 809 807 807 805 804 802 801